TimeCDT,TemperatureF,Dew PointF,Humidity,Sea Level PressureIn,VisibilityMPH,Wind Direction,Wind SpeedMPH,Gust SpeedMPH,PrecipitationIn,Events,Conditions,WindDirDegrees,DateUTC
12:15 AM,39.2,34.2,82,29.78,10.0,WNW,3.5,-,N/A,,Overcast,300,2013-11-02 05:15:00
12:35 AM,39.4,33.8,80,29.79,10.0,WNW,5.8,-,N/A,,Overcast,300,2013-11-02 05:35:00
12:55 AM,39.6,33.8,80,29.79,10.0,NW,5.8,-,N/A,,Overcast,310,2013-11-02 05:55:00
1:15 AM,39.7,33.8,79,29.80,10.0,NW,8.1,-,N/A,,Overcast,320,2013-11-02 06:15:00
1:35 AM,39.7,33.8,79,29.81,10.0,NW,6.9,-,N/A,,Overcast,310,2013-11-02 06:35:00
1:55 AM,39.7,33.8,79,29.82,10.0,NW,5.8,-,N/A,,Overcast,320,2013-11-02 06:55:00
2:15 AM,39.7,33.8,79,29.82,10.0,NW,5.8,-,N/A,,Overcast,310,2013-11-02 07:15:00
2:35 AM,39.9,33.4,78,29.83,10.0,WNW,5.8,-,N/A,,Overcast,300,2013-11-02 07:35:00
2:55 AM,38.1,32.7,81,29.84,10.0,NW,3.5,-,N/A,,Mostly Cloudy,310,2013-11-02 07:55:00
3:15 AM,36.5,32.4,85,29.84,10.0,WNW,3.5,-,N/A,,Scattered Clouds,300,2013-11-02 08:15:00
3:35 AM,35.4,32.0,87,29.84,10.0,WNW,3.5,-,N/A,,Clear,300,2013-11-02 08:35:00
3:55 AM,34.9,32.0,89,29.85,10.0,Calm,Calm,-,N/A,,Clear,0,2013-11-02 08:55:00
4:15 AM,34.3,33.3,96,29.86,10.0,WNW,3.5,-,N/A,,Scattered Clouds,300,2013-11-02 09:15:00
4:35 AM,35.6,32.4,88,29.86,10.0,Calm,Calm,-,N/A,,Mostly Cloudy,0,2013-11-02 09:35:00
4:55 AM,36.5,32.4,85,29.86,10.0,NW,4.6,-,N/A,,Overcast,310,2013-11-02 09:55:00
5:15 AM,36.7,32.5,85,29.87,10.0,WNW,3.5,-,N/A,,Overcast,300,2013-11-02 10:15:00
5:35 AM,36.9,32.4,84,29.88,10.0,WNW,3.5,-,N/A,,Overcast,300,2013-11-02 10:35:00
5:55 AM,36.9,32.4,84,29.89,10.0,Calm,Calm,-,N/A,,Overcast,0,2013-11-02 10:55:00
6:15 AM,36.7,32.4,84,29.90,10.0,Calm,Calm,-,N/A,,Overcast,0,2013-11-02 11:15:00
6:35 AM,36.9,32.4,84,29.91,10.0,Calm,Calm,-,N/A,,Overcast,0,2013-11-02 11:35:00
6:55 AM,36.9,32.2,83,29.91,10.0,Calm,Calm,-,N/A,,Overcast,0,2013-11-02 11:55:00
7:15 AM,36.5,32.4,85,29.91,10.0,Calm,Calm,-,N/A,,Overcast,0,2013-11-02 12:15:00
7:35 AM,35.8,32.4,87,29.92,10.0,Calm,Calm,-,N/A,,Overcast,0,2013-11-02 12:35:00
7:55 AM,35.2,34.7,98,29.93,10.0,Calm,Calm,-,N/A,,Overcast,0,2013-11-02 12:55:00
8:15 AM,35.8,33.4,91,29.93,10.0,Calm,Calm,-,N/A,,Overcast,0,2013-11-02 13:15:00
8:35 AM,36.7,33.4,88,29.94,10.0,Calm,Calm,-,N/A,,Overcast,0,2013-11-02 13:35:00
8:55 AM,37.8,32.9,83,29.95,10.0,Calm,Calm,-,N/A,,Overcast,0,2013-11-02 13:55:00
9:15 AM,38.7,32.9,80,29.96,10.0,WNW,3.5,-,N/A,,Overcast,300,2013-11-02 14:15:00
9:35 AM,39.2,32.9,78,29.96,10.0,WNW,4.6,-,N/A,,Overcast,300,2013-11-02 14:35:00
9:55 AM,39.6,33.1,78,29.97,10.0,NW,3.5,-,N/A,,Overcast,310,2013-11-02 14:55:00
10:15 AM,40.3,33.6,77,29.97,10.0,NW,4.6,-,N/A,,Overcast,320,2013-11-02 15:15:00
10:35 AM,40.6,33.3,75,29.98,10.0,NNW,5.8,-,N/A,,Overcast,340,2013-11-02 15:35:00
10:55 AM,41.2,33.8,75,29.98,10.0,NNW,5.8,-,N/A,,Overcast,330,2013-11-02 15:55:00
12:15 PM,43.9,33.4,67,30.01,10.0,NW,5.8,-,N/A,,Overcast,320,2013-11-02 17:15:00
12:35 PM,43.7,32.9,66,30.02,10.0,NW,6.9,-,N/A,,Overcast,310,2013-11-02 17:35:00
12:55 PM,43.9,32.7,65,30.02,10.0,NNW,8.1,-,N/A,,Overcast,330,2013-11-02 17:55:00
1:15 PM,44.2,32.7,64,30.02,10.0,NW,6.9,-,N/A,,Overcast,310,2013-11-02 18:15:00
1:35 PM,44.4,32.5,63,30.02,10.0,WNW,8.1,-,N/A,,Overcast,300,2013-11-02 18:35:00
1:55 PM,44.2,32.9,64,30.02,10.0,NW,4.6,-,N/A,,Overcast,310,2013-11-02 18:55:00
2:15 PM,44.2,31.3,60,30.03,10.0,NW,8.1,-,N/A,,Overcast,310,2013-11-02 19:15:00
2:35 PM,46.0,31.8,58,30.03,10.0,NW,9.2,-,N/A,,Mostly Cloudy,320,2013-11-02 19:35:00
2:55 PM,45.9,31.8,58,30.03,10.0,WNW,8.1,-,N/A,,Scattered Clouds,290,2013-11-02 19:55:00
3:15 PM,46.4,29.8,53,30.04,10.0,West,9.2,-,N/A,,Clear,270,2013-11-02 20:15:00
3:35 PM,45.7,30.9,56,30.04,10.0,West,10.4,16.1,N/A,,Scattered Clouds,270,2013-11-02 20:35:00
3:55 PM,46.6,31.1,55,30.04,10.0,West,10.4,-,N/A,,Scattered Clouds,280,2013-11-02 20:55:00
4:15 PM,46.6,30.2,53,30.04,10.0,West,9.2,16.1,N/A,,Clear,270,2013-11-02 21:15:00
4:35 PM,45.7,30.0,54,30.05,10.0,WNW,8.1,-,N/A,,Clear,290,2013-11-02 21:35:00
4:55 PM,43.9,29.8,58,30.06,10.0,West,5.8,-,N/A,,Clear,260,2013-11-02 21:55:00
5:15 PM,44.1,30.2,58,30.06,10.0,West,5.8,-,N/A,,Clear,270,2013-11-02 22:15:00
5:35 PM,42.8,30.6,62,30.07,10.0,West,3.5,-,N/A,,Scattered Clouds,260,2013-11-02 22:35:00
5:55 PM,41.5,31.1,66,30.07,10.0,Calm,Calm,-,N/A,,Overcast,0,2013-11-02 22:55:00
6:15 PM,38.3,32.0,78,30.07,10.0,Calm,Calm,-,N/A,,Overcast,0,2013-11-02 23:15:00
6:35 PM,36.3,31.8,84,30.08,10.0,Calm,Calm,-,N/A,,Overcast,0,2013-11-02 23:35:00
6:55 PM,34.5,32.0,90,30.08,10.0,Calm,Calm,-,N/A,,Mostly Cloudy,0,2013-11-02 23:55:00
7:15 PM,32.2,32.0,99,30.09,10.0,Calm,Calm,-,N/A,,Scattered Clouds,0,2013-11-03 00:15:00
7:35 PM,31.5,31.5,100,30.09,10.0,Calm,Calm,-,N/A,,Scattered Clouds,0,2013-11-03 00:35:00
7:55 PM,31.6,31.6,100,30.11,10.0,Calm,Calm,-,N/A,,Mostly Cloudy,0,2013-11-03 00:55:00
8:15 PM,31.6,31.5,99,30.11,10.0,Calm,Calm,-,N/A,,Overcast,0,2013-11-03 01:15:00
8:35 PM,30.7,30.7,100,30.11,10.0,Calm,Calm,-,N/A,,Mostly Cloudy,0,2013-11-03 01:35:00
8:55 PM,30.6,30.6,100,30.11,10.0,Calm,Calm,-,N/A,,Mostly Cloudy,0,2013-11-03 01:55:00
9:15 PM,30.4,30.4,100,30.11,10.0,Calm,Calm,-,N/A,,Mostly Cloudy,0,2013-11-03 02:15:00
9:35 PM,28.4,28.4,100,30.11,10.0,Calm,Calm,-,N/A,,Scattered Clouds,0,2013-11-03 02:35:00
9:55 PM,27.5,27.5,100,30.11,10.0,Calm,Calm,-,N/A,,Clear,0,2013-11-03 02:55:00
10:15 PM,26.8,26.8,100,30.12,10.0,Calm,Calm,-,N/A,,Clear,0,2013-11-03 03:15:00
10:35 PM,25.5,25.5,100,30.13,10.0,Calm,Calm,-,N/A,,Clear,0,2013-11-03 03:35:00
10:55 PM,25.5,25.5,100,30.13,10.0,Calm,Calm,-,N/A,,Clear,0,2013-11-03 03:55:00
11:15 PM,24.6,24.6,100,30.13,10.0,Calm,Calm,-,N/A,,Clear,0,2013-11-03 04:15:00
11:35 PM,24.3,24.3,100,30.13,10.0,Calm,Calm,-,N/A,,Clear,0,2013-11-03 04:35:00
11:55 PM,23.4,23.4,100,30.14,10.0,Calm,Calm,-,N/A,,Clear,0,2013-11-03 04:55:00